Location: Milevsko
(49.4500°N, 14.3670°E)
Time: 00:37:19
(UTC+01:00)

ISS - Pass Details

Date: 12 July 2018
Orbit: 401 x 408 km, 51.6° (Epoch: 20 November)

Event Time Altitude Azimuth Distance (km) Brightness Sun altitude
Exits shadow 04:22:18 - 273° (W) 2,391 -0.3 -6.6°
Rises 04:22:23 0° 273° (W) 2,355 -0.3 -6.6°
Reaches altitude 10° 04:24:30 10° 277° (W) 1,495 -1.3 -6.3°
Maximum altitude 04:27:49 57° 357° (N) 500 -3.1 -6.0°
Drops below altitude 10° 04:31:09 10° 78° (ENE) 1,500 0.1 -5.6°
Sets 04:33:16 0° 83° (E) 2,365 1.1 -5.3°
